Regional Weather Roundup
Issued by NWS

Home | Current Version | Previous Version | Graphics & Text | Print | Product List | Glossary On
Versions: 1 2 3 4 5 6 7 8 9 10 11 12 13 14 15 16 17 18 19 20 21 22 23 24 25 26 27
000
ASUS45 KCYS 230610
RWRWY

WYOMING REGIONAL WEATHER ROUNDUP
NATIONAL WEATHER SERVICE CHEYENNE WY
1200 AM MDT TUE AUG 23 2016

NOTE:  "FAIR" INDICATES FEW OR NO CLOUDS BELOW 12,000 FEET
WITH NO SIGNIFICANT WEATHER AND/OR OBSTRUCTIONS TO VISIBILITY.

WYZ001-230700-
YELLOWSTONE NATIONAL PARK

CITY           SKY/WX    TMP DP  RH WIND       PRES   REMARKS
LK YELLOWSTONE   N/A     47  16  29 CALM      30.13S
6HR MIN TEMP:  47; 6HR MAX TEMP:  70;

W YELLOWSTONE  NOT AVBL

$$
WYZ002>013-054>058-071-098>099-230700-
NORTHERN WYOMING

CITY           SKY/WX    TMP DP  RH WIND       PRES   REMARKS
JACKSON        FAIR      48   9  20 E5        30.07F
CODY           FAIR      66  28  24 N13G26    29.92R
GREYBULL       FAIR      71  26  18 W12       29.79R
6HR MIN TEMP:  71; 6HR MAX TEMP:  93;

WORLAND        FAIR      70  20  15 N5        29.83R
6HR MIN TEMP:  64; 6HR MAX TEMP:  94;

SHERIDAN       FAIR      72  31  22 NW25G32   29.80R
6HR MIN TEMP:  63; 6HR MAX TEMP:  90;

BUFFALO        FAIR      74  20  13 N22G28    29.83R
6HR MIN TEMP:  71; 6HR MAX TEMP:  90;

GILLETTE       FAIR      62  40  44 SE6       29.75F
6HR MIN TEMP:  57; 6HR MAX TEMP:  90;

HULETT         FAIR      70  41  35 SE5       29.76F
NEWCASTLE      FAIR      68  27  21 E8        29.79S

$$
WYZ014>020-022>026-101>103-230700-
CENTRAL WYOMING

CITY           SKY/WX    TMP DP  RH WIND       PRES   REMARKS
BIG PINEY      FAIR      48  11  22 N8        30.14S
6HR MIN TEMP:  47; 6HR MAX TEMP:  79;

PINEDALE       FAIR      46  21  36 CALM      30.16R
DUBOIS         FAIR      54   7  15 NW7       30.09S
LANDER         FAIR      73  10   9 NW10      29.95R
6HR MIN TEMP:  71; 6HR MAX TEMP:  87;

RIVERTON       FAIR      66  12  12 W14       29.95R
6HR MIN TEMP:  66; 6HR MAX TEMP:  89;

CASPER         FAIR      67  31  26 SW12      29.94R
6HR MIN TEMP:  59; 6HR MAX TEMP:  89;

DOUGLAS        FAIR      74  35  24 W15       29.88R
6HR MIN TEMP:  73; 6HR MAX TEMP:  92;


$$
WYZ021-027>030-104>119-230700-
SOUTHERN WYOMING

CITY           SKY/WX    TMP DP  RH WIND       PRES   REMARKS
EVANSTON       FAIR      64  19  17 CALM      30.18
6HR MIN TEMP:  62; 6HR MAX TEMP:  79;

FORT BRIDGER   FAIR      61  16  17 W8        30.20R
ROCK SPRINGS   FAIR      62  12  14 SW10      30.12R
6HR MIN TEMP:  60; 6HR MAX TEMP:  78;

DIXON          FAIR      54  35  48 CALM      30.17R
RAWLINS        FAIR      66  34  30 W16       30.10R
6HR MIN TEMP:  66; 6HR MAX TEMP:  83;

SARATOGA       FAIR      59  37  44 SE10      30.14S
LARAMIE        FAIR      54  38  54 SE8       30.12S
6HR MIN TEMP:  52; 6HR MAX TEMP:  71; 6HR PCP: TRACE;

CHEYENNE       FAIR      64  36  35 W13       30.00F
6HR MIN TEMP:  64; 6HR MAX TEMP:  77;

TORRINGTON     FAIR      66  40  38 SE8       29.84S
6HR MIN TEMP:  65; 6HR MAX TEMP:  86;

PINE BLUFFS    FAIR      55  41  58 SW3       29.94F

$$




USA.gov is the U.S. government's official web portal to all federal, state and local government web resources and services.